Weather History for Winnsboro, SC

Change the Weather History Date:

Monday, November 25, 2013

  Actual Average Record
Temperature  
Mean Temperature 35 °F -  
Max Temperature 46 °F 62 °F 73 °F (2010)
Min Temperature 24 °F 35 °F 24 °F (2013)
Degree Days  
Heating Degree Days 30    
Moisture  
Dew Point 13 °F    
Average Humidity 40    
Maximum Humidity 64    
Minimum Humidity 21    
Precipitation  
Precipitation 0.00 in - - ()
Sea Level Pressure  
Sea Level Pressure 30.46 in    
Wind  
Wind Speed 4 mph (ENE)    
Max Wind Speed 10 mph    
Max Gust Speed -    
Visibility 10 miles    
Events      
Averages and records for this station are not official NWS values.
T = Trace of Precipitation, MM = Missing Value Source: NWS Daily Summary

Daily Weather History Graph

Daily Weather History Graph

Search for Another Location

Airport:

Trip Planner

Search our weather history database for the weather conditions in past years. The results will help you decide how hot, cold, wet, or windy it might be!

Date:

Astronomy

Nov. 25, 2013 Rise Set
Actual Time 7:07 AM EST 5:15 PM EST
Civil Twilight 6:40 AM EST 5:42 PM EST
Nautical Twilight 6:09 AM EST 6:13 PM EST
Astronomical Twilight 5:39 AM EST 6:43 PM EST
Moon No Moon Rise 12:33 PM EST (11/25)
Length of Visible Light 11h 02m
Length of Day
10h 08m
Waning Gibbous, 51% of the Moon is Illuminated
Nov 25
Waning Gibbous
Nov 25
Last Quarter
Dec 2
New
Dec 9
First Quarter
Dec 17
Full

Hourly Weather History & Observations

Time (EST) Temp. Windchill Dew Point Humidity Pressure Visibility Wind Dir Wind Speed Gust Speed Precip Events Conditions
12:15 AM 30.2 °F 26.7 °F 10.4 °F 44% 30.53 in 10.0 mi ENE 3.5 mph - N/A   Clear
12:35 AM 30.2 °F 26.7 °F 10.4 °F 44% 30.52 in 10.0 mi East 3.5 mph - N/A   Clear
12:55 AM 30.2 °F - 10.4 °F 44% 30.52 in 10.0 mi Calm Calm - N/A   Clear
1:15 AM 28.4 °F 22.2 °F 12.2 °F 51% 30.51 in 10.0 mi ENE 5.8 mph - N/A   Clear
1:35 AM 30.2 °F 25.4 °F 10.4 °F 44% 30.51 in 10.0 mi NE 4.6 mph - N/A   Clear
1:55 AM 28.4 °F 23.3 °F 12.2 °F 51% 30.51 in 10.0 mi NE 4.6 mph - N/A   Clear
2:15 AM 28.4 °F 22.2 °F 12.2 °F 51% 30.51 in 10.0 mi NE 5.8 mph - N/A   Clear
2:35 AM 28.4 °F 23.3 °F 12.2 °F 51% 30.52 in 10.0 mi NE 4.6 mph - N/A   Clear
2:55 AM 28.4 °F 23.3 °F 10.4 °F 47% 30.52 in 10.0 mi NE 4.6 mph - N/A   Clear
3:15 AM 28.4 °F - 12.2 °F 51% 30.52 in 10.0 mi Calm Calm - N/A   Clear
3:35 AM 28.4 °F - 12.2 °F 51% 30.52 in 10.0 mi Calm Calm - N/A   Clear
3:55 AM 26.6 °F 22.6 °F 12.2 °F 55% 30.51 in 10.0 mi NNE 3.5 mph - N/A   Clear
4:15 AM 26.6 °F - 12.2 °F 55% 30.51 in 10.0 mi Calm Calm - N/A   Clear
4:35 AM 26.6 °F - 12.2 °F 55% 30.51 in 10.0 mi Calm Calm - N/A   Clear
4:55 AM 26.6 °F 22.6 °F 12.2 °F 55% 30.51 in 10.0 mi NE 3.5 mph - N/A   Clear
5:15 AM 26.6 °F 22.6 °F 12.2 °F 55% 30.52 in 10.0 mi NNE 3.5 mph - N/A   Clear
5:35 AM 24.8 °F - 14.0 °F 64% 30.52 in 10.0 mi Calm Calm - N/A   Clear
5:55 AM 24.8 °F - 12.2 °F 59% 30.53 in 10.0 mi Calm Calm - N/A   Clear
6:15 AM 24.8 °F 20.5 °F 12.2 °F 59% 30.52 in 10.0 mi NNE 3.5 mph - N/A   Clear
6:35 AM 26.6 °F 22.6 °F 12.2 °F 55% 30.52 in 10.0 mi NNE 3.5 mph - N/A   Clear
6:55 AM 26.6 °F 21.2 °F 12.2 °F 55% 30.52 in 10.0 mi NE 4.6 mph - N/A   Clear
7:15 AM 26.6 °F 22.6 °F 12.2 °F 55% 30.53 in 10.0 mi NE 3.5 mph - N/A   Clear
7:35 AM 26.6 °F 21.2 °F 12.2 °F 55% 30.54 in 10.0 mi NE 4.6 mph - N/A   Clear
7:55 AM 28.4 °F 23.3 °F 12.2 °F 51% 30.54 in 10.0 mi NE 4.6 mph - N/A   Clear
8:15 AM 28.4 °F 23.3 °F 12.2 °F 51% 30.54 in 10.0 mi ENE 4.6 mph - N/A   Clear
8:35 AM 30.2 °F 24.3 °F 12.2 °F 47% 30.54 in 10.0 mi NE 5.8 mph - N/A   Clear
8:55 AM 30.2 °F 24.3 °F 12.2 °F 47% 30.55 in 10.0 mi East 5.8 mph - N/A   Clear
9:15 AM 32.0 °F 25.6 °F 10.4 °F 41% 30.56 in 10.0 mi East 6.9 mph - N/A   Clear
9:35 AM 32.0 °F 25.6 °F 8.6 °F 38% 30.55 in 10.0 mi ESE 6.9 mph - N/A   Clear
9:55 AM 33.8 °F 27.0 °F 6.8 °F 32% 30.55 in 10.0 mi East 8.1 mph - N/A   Clear
10:15 AM 35.6 °F 28.6 °F 6.8 °F 30% 30.55 in 10.0 mi NE 9.2 mph - N/A   Clear
10:35 AM 35.6 °F 29.2 °F 6.8 °F 30% 30.53 in 10.0 mi East 8.1 mph - N/A   Clear
10:55 AM 37.4 °F 31.4 °F 8.6 °F 30% 30.52 in 10.0 mi East 8.1 mph - N/A   Clear
11:15 AM 37.4 °F 30.3 °F 6.8 °F 28% 30.51 in 10.0 mi ENE 10.4 mph - N/A   Clear
11:35 AM 39.2 °F 33.6 °F 6.8 °F 26% 30.50 in 10.0 mi ENE 8.1 mph - N/A   Clear
11:55 AM 41.0 °F 35.8 °F 6.8 °F 24% 30.48 in 10.0 mi ENE 8.1 mph - N/A   Clear
12:15 PM 42.8 °F 38.6 °F 6.8 °F 23% 30.48 in 10.0 mi ENE 6.9 mph - N/A   Scattered Clouds
12:35 PM 42.8 °F 38.6 °F 5.0 °F 21% 30.47 in 10.0 mi East 6.9 mph - N/A   Scattered Clouds
12:55 PM 44.6 °F 42.2 °F 8.6 °F 23% 30.46 in 10.0 mi East 4.6 mph - N/A   Clear
1:15 PM 44.6 °F 43.1 °F 8.6 °F 23% 30.45 in 10.0 mi NE 3.5 mph - N/A   Clear
1:35 PM 44.6 °F 41.4 °F 10.4 °F 25% 30.43 in 10.0 mi NNE 5.8 mph - N/A   Clear
1:55 PM 44.6 °F - 10.4 °F 25% 30.42 in 10.0 mi Calm Calm - N/A   Clear
2:15 PM 46.4 °F 44.3 °F 12.2 °F 25% 30.40 in 10.0 mi ENE 4.6 mph - N/A   Clear
2:35 PM 46.4 °F 42.4 °F 14.0 °F 27% 30.39 in 10.0 mi East 8.1 mph - N/A   Clear
2:55 PM 46.4 °F 44.3 °F 14.0 °F 27% 30.40 in 10.0 mi NNE 4.6 mph - N/A   Clear
3:15 PM 46.4 °F 45.2 °F 17.6 °F 32% 30.40 in 10.0 mi ESE 3.5 mph - N/A   Clear
3:35 PM 46.4 °F 43.5 °F 14.0 °F 27% 30.39 in 10.0 mi NNE 5.8 mph - N/A   Clear
3:55 PM 46.4 °F 42.9 °F 15.8 °F 29% 30.39 in 10.0 mi ENE 6.9 mph - N/A   Clear
4:15 PM 46.4 °F 44.3 °F 17.6 °F 32% 30.38 in 10.0 mi East 4.6 mph - N/A   Clear
4:35 PM 44.6 °F 43.1 °F 17.6 °F 34% 30.40 in 10.0 mi ESE 3.5 mph - N/A   Clear
4:55 PM 44.6 °F - 17.6 °F 34% 30.39 in 10.0 mi Calm Calm - N/A   Clear
5:15 PM 44.6 °F 43.1 °F 19.4 °F 37% 30.39 in 10.0 mi ENE 3.5 mph - N/A   Mostly Cloudy
5:35 PM 44.6 °F 42.2 °F 19.4 °F 37% 30.39 in 10.0 mi East 4.6 mph - N/A   Overcast
5:55 PM 42.8 °F 41.1 °F 19.4 °F 39% 30.39 in 10.0 mi ESE 3.5 mph - N/A   Overcast
6:15 PM 42.8 °F 40.1 °F 19.4 °F 39% 30.39 in 10.0 mi East 4.6 mph - N/A   Overcast
6:35 PM 42.8 °F 41.1 °F 19.4 °F 39% 30.40 in 10.0 mi ESE 3.5 mph - N/A   Overcast
6:55 PM 42.8 °F 40.1 °F 19.4 °F 39% 30.39 in 10.0 mi East 4.6 mph - N/A   Overcast
7:15 PM 42.8 °F 41.1 °F 19.4 °F 39% 30.41 in 10.0 mi East 3.5 mph - N/A   Overcast
7:35 PM 42.8 °F 38.6 °F 19.4 °F 39% 30.40 in 10.0 mi East 6.9 mph - N/A   Overcast
7:55 PM 42.8 °F 38.6 °F 17.6 °F 36% 30.39 in 10.0 mi East 6.9 mph - N/A   Overcast
8:15 PM 42.8 °F 38.0 °F 17.6 °F 36% 30.38 in 10.0 mi East 8.1 mph - N/A   Overcast
8:35 PM 42.8 °F 40.1 °F 15.8 °F 34% 30.37 in 10.0 mi East 4.6 mph - N/A   Overcast
8:55 PM 42.8 °F 38.0 °F 15.8 °F 34% 30.36 in 10.0 mi East 8.1 mph - N/A   Overcast
9:15 PM 41.0 °F 35.8 °F 14.0 °F 33% 30.35 in 10.0 mi East 8.1 mph - N/A   Overcast
9:35 PM 41.0 °F 38.0 °F 14.0 °F 33% 30.35 in 10.0 mi ENE 4.6 mph - N/A   Overcast
9:55 PM 41.0 °F 37.1 °F 15.8 °F 36% 30.34 in 10.0 mi ENE 5.8 mph - N/A   Overcast
10:15 PM 41.0 °F 38.0 °F 14.0 °F 33% 30.34 in 10.0 mi NE 4.6 mph - N/A   Overcast
10:35 PM 41.0 °F 35.8 °F 15.8 °F 36% 30.34 in 10.0 mi NE 8.1 mph - N/A   Overcast
10:55 PM 41.0 °F 37.1 °F 15.8 °F 36% 30.34 in 10.0 mi NE 5.8 mph - N/A   Overcast
11:15 PM 41.0 °F 38.0 °F 15.8 °F 36% 30.33 in 10.0 mi ENE 4.6 mph - N/A   Overcast
11:35 PM 41.0 °F 36.4 °F 17.6 °F 39% 30.31 in 10.0 mi ENE 6.9 mph - N/A   Overcast
11:55 PM 41.0 °F 35.8 °F 15.8 °F 36% 30.30 in 10.0 mi NE 8.1 mph - N/A   Overcast